sat.trackr.live / text

‹ back to catalog

STARLINK-31738

NORAD 59535 · 2024-074B

PAYLOAD ACTIVE UNKNOWN

§ Identity

Operator
Country
US
Launch date
2024-04-18
Launch site
AFETR
Launch vehicle
Mass (kg)
RCS (m²)

Purposes: comms

External: N2YO · Heavens-Above · Gunter

§ Orbital elements

Epoch: 2026-05-25T00:50:01.070304Z

Period
94.27 min
Inclination
43.0018°
Eccentricity
0.0000868
Mean motion
15.27583444 rev/d
Perigee alt
482.4 km
Apogee alt
483.6 km
Semi-major
6,861.2 km
B*
1.5405e-4
RAAN
268.5358°
Arg perigee
298.8555°
Mean anomaly
61.2209°
Rev number
11,773

§ Raw data

STARLINK-317381 59535U 24074B   26145.03473461  .00003980  00000+0  15405-3 0  99972 59535  43.0018 268.5358 0000868 298.8555  61.2209 15.27583444117738

JSON: /api/v1/satellites/59535 · /tle

For live sub-satellite position, see the globe view (requires WebGL).

§ Visibility from observer

Set your observer location to see the next 7 days of passes ≥ 10°. The values pass through the URL so the page stays shareable.

No JS? Fill the form by hand. The geolocation button needs JavaScript.